AirNav   Everest Fuels
 
 924 users online  

KANP Lee Airport
Annapolis, Maryland, USA

GOING TO ANNAPOLIS?


FAA INFORMATION EFFECTIVE 18 JUNE 2020

Location

FAA Identifier: ANP
Lat/Long: 38-56-34.3600N 076-34-06.2370W
38-56.572667N 076-34.103950W
38.9428778,-76.5683992
(estimated)
Elevation: 34.2 ft. / 10 m (estimated)
Variation: 10W (1985)
From city: 5 miles SW of ANNAPOLIS, MD
Time zone: UTC -4 (UTC -5 during Standard Time)
Zip code: 21037

Airport Operations

Airport use: Open to the public
Activation date: 06/1942
Control tower: no
ARTCC: WASHINGTON CENTER
FSS: LEESBURG FLIGHT SERVICE STATION
NOTAMs facility: DCA (NOTAM-D service available)
Attendance: 0700-1700
CONTACT AIRPORT MANAGER 410-956-1280 FOR APPROVAL OF ANY FLIGHT OPERATIONS BETWEEN 2200 - 0700 LOCAL. ARPT UNATNDD NEW YEARS; MEMORIAL DAY; JULY 4; LABOR DAY; THANKSGIVING & CHRISTMAS.
Wind indicator: lighted
Segmented circle: no
Lights: ACTVT LIRL RWY 12/30 - CTAF. LIGHTING INOP BTW 2200-0700.
Beacon: white-green (lighted land airport)
DUSK-2200.
Landing fee: yes

Airport Communications

CTAF: 122.9
POTOMAC APPROACH: 119.7
POTOMAC DEPARTURE: 119.7
WX AWOS-3 at W29 (11 nm E): 120.575 (410-643-8795)
WX AWOS-3 at FME (12 nm NW): 123.925
WX ASOS at BWI (15 nm N): PHONE 410-691-1278
WX AWOS-3 at CGS (17 nm W): 121.225 (301-864-5497)

Nearby radio navigation aids

VOR radial/distance  VOR name  Freq  Var
BALr173/14.4BALTIMORE VORTAC115.1011W
ADWr070/16.1ANDREWS VORTAC113.1010W
OTTr040/16.4NOTTINGHAM VORTAC113.7010W
DCAr086/22.4WASHINGTON VOR/DME111.0009W
EMIr158/38.2WESTMINSTER VORTAC117.9008W

 
NDB name  Hdg/Dist  Freq  Var  ID
ELLICOTT166/22.837111WFND ..-. -. -..
OXONN075/23.933211WDCA -.. -.-. .-
GEORGETOWN097/26.032309WGTN --. - -.
DAVEE065/30.422309WDAA -.. .- .-

Airport Services

Fuel available: 100LL
Parking: tiedowns
Airframe service: MAJOR
Powerplant service: MAJOR

Runway Information

Runway 12/30

Dimensions: 2500 x 48 ft. / 762 x 15 m
Surface: asphalt, in fair condition
MINOR PAVEMENT CRACKS FULL LENGTH.
Runway edge lights: low intensity
RUNWAY 12  RUNWAY 30
Latitude: 38-56.634583N38-56.510733N
Longitude: 076-34.355417W076-33.852483W
Elevation: 30.6 ft.31.3 ft.
Traffic pattern: leftleft
Runway heading: 118 magnetic, 108 true298 magnetic, 288 true
Displaced threshold: 476 ft.321 ft.
Markings: basic, in fair conditionnonprecision, in fair condition
Visual slope indicator: 2-light PAPI on left (5.75 degrees glide path)
VGSI APCHS TO BE FLOWN. RWY 12 VGSI RELIABLE ON CNTLRN ONLY.
2-light PAPI on right (4.25 degrees glide path)
Touchdown point: yes, no lightsyes, no lights
Obstructions: 54 ft. trees, 278 ft. from runway, 107 ft. right of centerline, 1:1 slope to clear
6 FT FENCE ACROSS APCH END MARKED. 10 FT ROAD 156 FT FM THLD.
36 ft. trees, 681 ft. from runway, 13:1 slope to clear
+6 FT FENCE ACROSS APCH END MKD. +15 FT PUBLIC ROAD AT THLD, R OF CNTRLN.

Airport Ownership and Management from official FAA records

Ownership: Privately-owned
Owner: LEE AIRPORT AUTHORITY LLC
P.O. BOX 236
QUEENSTOWN, MD 21658
Phone 410-956-1280
CORPORATION ESTABLISHED BY MARY C. LEE
Manager: LEE RUNWAY MANAGER LLC
P.O. BOX 236
QUEENSTOWN, MD 21658
Phone 410-956-1280

Airport Operational Statistics

Aircraft based on the field: 72
Single engine airplanes: 70
Multi engine airplanes: 2
    
Aircraft operations: avg 32/day *
84% local general aviation
13% transient general aviation
3% military
* for 12-month period ending 02 April 2020

Additional Remarks

NO LANDING ON GRASS. LDG FEE AFTER ONE HOUR OR OVERNIGHT.
TOUCH & GO OPNS PROHIBITED.
NO TAKE-OFFS AFTER 2200 DAILY.
NO GRASS CROSSOVER FM RWY 12/30 TO TWY ROLLOUT TO THE END OF RWY.
HVY BIRD AND WILDLIFE ACT ON AND INVOF ARPT.
ARPT CLSD 2200-0700 LCL, CTC ARPT MANAGER FOR DETAILS.
FOR CD CTC POTOMAC APCH AT 866-429-5882.

Instrument Procedures

NOTE: All procedures below are presented as PDF files. If you need a reader for these files, you should download the free Adobe Reader.

NOT FOR NAVIGATION. Please procure official charts for flight.
FAA instrument procedures published for use from 18 June 2020 at 0901Z to 16 July 2020 at 0900Z.

 
IAPs - Instrument Approach Procedures
RNAV (GPS)-A   download (216KB)
NOTE: Special Alternate Minimums apply   download (22KB)
NOTE: Special Take-Off Minimums/Departure Procedures apply   download (140KB)

Other nearby airports with instrument procedures:

W00 - Freeway Airport (10 nm W)
W29 - Bay Bridge Airport (11 nm E)
KFME - Tipton Airport (12 nm NW)
KBWI - Baltimore/Washington International Thurgood Marshall Airport (15 nm N)
KADW - Joint Base Andrews (16 nm SW)
KCGS - College Park Airport (17 nm W)
 
Loc | Ops | Rwys | IFR | FBO | Links
Com | Nav | Svcs | Stats | Notes
Area around KANP (Lee Airport)
 
Road maps at: MapQuest Bing Google
 
Aerial photo
WARNING: Photo may not be current or correct
Aerial photo of KANP (Lee Airport)
Photo taken 19-Oct-2016
looking northeast.

Do you have a better or more recent aerial photo of Lee Airport that you would like to share? If so, please send us your photo.

 
Sectional chart

 
Airport distance calculator
Flying to Lee Airport? Find the distance to fly.

From to KANP

Sunrise and sunset
Times for 06-Jul-2020
 Local
(UTC-4)
 Zulu
(UTC)
Morning civil twilight05:1709:17
Sunrise05:4909:49
Sunset20:3400:34
Evening civil twilight21:0501:05

Current date and time
Zulu (UTC)  06-Jul-2020 13:12:58
Local (UTC-4)  06-Jul-2020 09:12:58
 
METAR
KNAK 
5nm NE 
061254Z AUTO 19005KT 9SM CLR 27/22 A3004 RMK AO2 SLP175 T02670222
KW29 
11nm E 
061255Z AUTO 19004KT 7SM CLR 28/24 A3004 RMK AO2
KFME 
13nm NW 
061255Z AUTO 00000KT 10SM SCT075 24/23 A3007 RMK AO1
KBWI 
14nm N 
061254Z 00000KT 10SM BKN140 BKN250 26/23 A3003 RMK AO2 SLP169 T02610228
KADW 
16nm SW 
061256Z AUTO 00000KT 10SM CLR 26/22 A3004 RMK AO2 SLP177 T02560217 $
KCGS 
17nm W 
061255Z AUTO 00000KT 10SM CLR 26/21 A3004 RMK AO1 T02600207
TAF
KBWI 
14nm N 
061135Z 0612/0718 VRB03KT P6SM SCT250 FM061500 20006KT P6SM FEW060 FM061900 18007KT P6SM VCTS BKN060CB FM070000 16005KT P6SM BKN060 FM070600 20004KT P6SM SCT060 FM071600 17006KT P6SM SCT050
KADW 
16nm SW 
061035Z 0610/0715 22006KT 9999 FEW250 QNH2998INS BECMG 0614/0615 20010KT 9999 VCSH FEW050 FEW100 SCT250 QNH2998INS BECMG 0618/0619 20010KT 9000 -SHRA VCTS FEW040CB SCT120 BKN250 QNH2998INS BECMG 0700/0701 19005KT 9999 NSW FEW060 FEW120 FEW250 QNH3000INS BECMG 0713/0714 21008KT 9999 FEW050 QNH3005INS TX33/0619Z TN22/0610Z
NOTAMs
Click for the latest NOTAMs
NOTAMs are issued by the DoD/FAA and will open in a separate window not controlled by AirNav.

 

 
 

FBO, Fuel Providers, and Aircraft Ground Support

  
 Business Name 
 
 Contact 
 
 Services / Description 
 
Fuel Prices
 
Comments
  
Lee Runway Manager, LLC 410-956-1280
410-956-4129
[email]
Airport management, Aviation fuel, Aircraft parking (ramp or tiedown), Hangar leasing / sales, Pilot school (FAR Part 141), Flight training, ...

More info about Lee Runway Manager, LLC
Phillips 66
100LL
FS $5.50 
 Updated 24-Jun-2020
 
   1 read write
FS=Full service
Update Fuel Prices
 

Where to Eat: Catering, Restaurants, Food shops

  
 Business Name 
 
 Contact 
 
 Services / Description 
 
Distance
 
Comments
  
Spizzico Italian Kitchen 443-782-7288
[web site]

Like us on facebook See us on instagram
Restaurant

More info about Spizzico Italian Kitchen
on airport  
   1 read write
 

Would you like to see your business listed on this page?

 If your business provides an interesting product or service to pilots, flight crews, aircraft, or users of the Lee Airport, you should consider listing it here.  To start the listing process, click on the button below
 
Add a business
 

Other Pages about Lee Airport

www.leeairport.org
www.presgroup.com/...
 
Update a link
 
Copyright © AirNav, LLC. All rights reserved. Privacy Policy  Contact